Location: Unspecified
(41.5000°N, 0.0000°E)
Time: 07:09:33
(UTC+00:00)

deb Explorer IX - Pass Details

Date: 25 June 2019
Orbit: 539 x 1112 km, 38.8° (Epoch: 17 July)

Event Time Altitude Azimuth Distance (km) Brightness Sun altitude
Rises 19:21:34 0° 271° (W) 3,907 ? 1.8°
Reaches altitude 10° 19:27:19 10° 236° (SW) 2,860 ? 0.9°
Maximum altitude 19:28:37 11° 225° (SW) 2,790 ? 0.6°
Drops below altitude 10° 19:29:54 10° 214° (SW) 2,801 ? 0.4°
Sets 19:35:15 0° 178° (S) 3,594 ? -0.4°
